[[{"header":{"parameterUnit":"m.s-1","parameterCategory":1,"la1":30.2991,"la2":30.254,"lo1":-89.0895,"lo2":-89.0444,"dy":0.0017,"dx":0.0017,"nx":28,"ny":28,"refTime":"2023-10-11T03:00:00:Z","depth":0,"parameterNumber":2,"parameterNumberName":"U-component_of_WINDS"},"data":[0,0,0,0,0,0,0,0,0,0,0,0,0,0,0,0,0,0,0,0,0,0,0,0,0,0,0,0,0,0,0,0,0,0,0,0,0,0,0,0,0,0,0,0,0,0,0,0,0,0,0,0,0,0,0,0,0,0,-3.4496,-3.4497,0,-3.4564,-3.4565,-3.4565,-3.4504,-3.4501,-3.4499,-3.4497,-3.4565,-3.4569,-3.4573,0,0,0,0,0,0,0,0,0,0,0,0,0,-3.4312,-3.4315,-3.4496,-3.4497,-3.4498,-3.4564,-3.4565,-3.4566,-3.4504,-3.4501,-3.4498,-3.4495,-3.4564,-3.4569,-3.4574,0,0,0,0,0,0,0,0,0,0,0,0,0,-3.4387,-3.4317,-3.4496,-3.4475,-3.4474,-3.4564,-3.4565,-3.4566,-3.4505,-3.4501,-3.4497,-3.4494,-3.4562,-3.4568,-3.4575,-3.4688,0,0,-3.4594,-3.4596,0,0,0,0,0,0,0,0,-3.4383,-3.4394,-3.4477,-3.4477,-3.4475,-3.4522,-3.4525,-3.4607,-3.4506,-3.4493,-3.4496,-3.4492,-3.4554,-3.456,-3.4581,-3.4691,-3.4694,-3.4594,-3.4598,-3.4601,-3.4602,0,0,0,0,0,0,0,-3.4378,-3.439,-3.4523,-3.4479,-3.4477,-3.4462,-3.4468,-3.454,-3.4544,-3.4494,-3.449,-3.4499,-3.4552,-3.4576,-3.4583,-3.4695,-3.4594,-3.4599,-3.4603,-3.4606,-3.4901,-3.4905,0,0,0,0,0,0,-3.4375,-3.4387,-3.4521,-3.4525,-3.4419,-3.4468,-3.4476,-3.4511,-3.4543,-3.4544,-3.4502,-3.4495,-3.4567,-3.4575,-3.4585,-3.472,-3.4601,-3.4606,-3.461,-3.4897,-3.4902,-3.4906,0,0,0,0,0,0,-3.4371,-3.4387,-3.4518,-3.4455,-3.447,-3.4475,-3.4515,-3.4514,-3.4537,-3.4549,-3.4549,-3.4525,-3.4564,-3.4576,-3.4663,-3.4721,-3.4609,-3.4615,-3.4892,-3.4898,-3.4904,-3.499,0,0,0,0,0,0,-3.4366,-3.4386,-3.443,-3.4456,-3.4474,-3.4596,-3.4519,-3.4518,-3.4548,-3.454,-3.457,-3.4571,-3.4562,-3.4654,-3.4669,-3.4728,-3.462,-3.4887,-3.4895,-3.4902,-3.4982,-3.4999,-3.5013,0,0,0,0,0,-3.436,-3.4451,-3.4432,-3.4449,-3.4528,-3.4599,-3.4609,-3.4597,-3.4553,-3.4596,-3.4604,-3.4571,-3.4712,-3.4663,-3.468,-3.4741,-3.4883,-3.4893,-3.4901,-3.4976,-3.4996,-3.5012,0,0,0,0,0,0,-3.4432,-3.4454,-3.4434,-3.4537,-3.4566,-3.4588,-3.4643,-3.4618,-3.4661,-3.4652,-3.4634,-3.4641,-3.4733,-3.4746,-3.4691,-3.4852,-3.479,-3.4803,-3.4841,-3.486,-3.4875,-3.487,-3.4625,0,0,0,0,0,-3.446,-3.4516,-3.4532,-3.4621,-3.4637,-3.4638,-3.4668,-3.4656,-3.4686,-3.4698,-3.4712,-3.4742,-3.4793,-3.4827,-3.4875,-3.4984,-3.4989,-3.5034,-3.5049,-3.5062,-3.5073,-3.5131,-3.5151,-3.4936,-3.4936,-3.4936,0,0,-3.4518,-3.4537,-3.4574,-3.4636,-3.4658,-3.4716,-3.4649,-3.4713,-3.4756,-3.4708,-3.4791,-3.4802,-3.4834,-3.4932,-3.4976,-3.4946,-3.5134,-3.5073,-3.5083,-3.5088,-3.5143,-3.5163,-3.5181,-3.4943,-3.4942,-3.4941,0,0,-3.4654,-3.4674,-3.4751,-3.4774,-3.4807,-3.4807,-3.4825,-3.4851,-3.4857,-3.494,-3.4905,-3.4955,-3.5044,-3.5068,-3.5092,-3.5237,-3.5208,-3.5253,-3.5332,-3.5389,-3.5406,-3.5421,-3.5472,-3.5491,-3.5264,-3.5264,-3.5264,0,-3.4722,-3.4808,-3.4793,-3.486,-3.4888,-3.4848,-3.4925,-3.4948,-3.4995,-3.5016,-3.4981,-3.5091,-3.511,-3.5213,-3.5248,-3.5269,-3.5289,-3.5249,-3.5405,-3.542,-3.5433,-3.5482,-3.5502,-3.5269,-3.5269,-3.5268,-3.5268,0,-3.489,-3.4951,-3.5008,-3.5056,-3.509,-3.5162,-3.5157,-3.5195,-3.5179,-3.5182,-3.5267,-3.5288,-3.5339,-3.5363,-3.5348,-3.5464,-3.5444,-3.5407,-3.5345,-3.5459,-3.5505,-3.5524,-3.5277,-3.5275,-3.5273,-3.5272,0,0,-3.5074,-3.5112,-3.5133,-3.5154,-3.5188,-3.5234,-3.5304,-3.5354,-3.5386,-3.542,-3.5478,-3.5553,-3.5519,-3.5547,-3.5534,-3.5584,-3.5697,-3.5541,-3.5542,-3.557,-3.5826,-3.5854,-3.5876,-3.5678,-3.5682,-3.5684,-3.5823,0,-3.5211,-3.5333,-3.5321,-3.5436,-3.5492,-3.5453,-3.5514,-3.5541,-3.5546,-3.5593,-3.5597,-3.5652,-3.5603,-3.5619,-3.5667,-3.5674,-3.5749,-3.5663,-3.5731,-3.5734,-3.5725,-3.59,-3.5929,-3.606,-3.5841,-3.5844,-3.5846,0,-3.5388,-3.5428,-3.5549,-3.5574,-3.5597,-3.5652,-3.5697,-3.5743,-3.5772,-3.5772,-3.5803,-3.5782,-3.5851,-3.5787,-3.5882,-3.5824,-3.5851,-3.5858,-3.5863,-3.5869,-3.5797,-3.5911,-3.6101,-3.6121,-3.5874,-3.5872,-3.587,0,-3.551,-3.5595,-3.5678,-3.5697,-3.5728,-3.5768,-3.5782,-3.5808,-3.5839,-3.5878,-3.5898,-3.5945,-3.597,-3.6006,-3.5998,-3.5952,-3.6095,-3.603,-3.6097,-3.6097,-3.6129,-3.6127,-3.6327,-3.6146,-3.6146,-3.6146,-3.6145,0,-3.5665,-3.574,-3.5733,-3.5785,-3.5868,-3.5853,-3.5936,-3.5946,-3.5969,-3.6021,-3.599,-3.604,-3.6026,-3.6075,-3.6069,-3.6148,-3.616,-3.6161,-3.6159,-3.6164,-3.6164,-3.6182,-3.6173,-3.6151,-3.615,-3.6149,-3.6148,0,-3.5816,-3.5814,-3.5902,-3.5925,-3.5932,-3.5993,-3.6011,-3.6059,-3.6061,-3.6128,-3.6142,-3.6145,-3.6201,-3.6196,-3.6259,-3.6255,-3.6353,-3.634,-3.6344,-3.6341,-3.6408,-3.6401,-3.6625,-3.6654,-3.6455,-3.6457,-3.6459,0,-3.5915,-3.5972,-3.6001,-3.6034,-3.6051,-3.6105,-3.6136,-3.6123,-3.6157,-3.6195,-3.6239,-3.6291,-3.6333,-3.6424,-3.6431,-3.6479,-3.6466,-3.6541,-3.6473,-3.6477,-3.6467,-3.6464,-3.647,-3.6555,-3.6557,-3.6559,-3.6561,0,-3.6091,-3.6087,-3.6134,-3.6181,-3.6219,-3.6255,-3.6288,-3.6316,-3.6307,-3.6346,-3.6403,-3.6435,-3.6499,-3.6552,-3.6597,-3.6611,-3.6585,-3.6582,-3.66,-3.6606,-3.6606,-3.6607,-3.638,-3.6577,-3.6575,-3.6574,-3.6573,-3.6573,-3.6219,-3.6268,-3.6296,-3.6349,-3.6372,-3.6403,-3.6449,-3.6457,-3.6504,-3.6556,-3.6545,-3.6609,-3.6636,-3.6694,-3.6713,-3.6762,-3.6735,-3.6761,-3.6767,-3.6774,-3.6782,-3.6598,-3.677,-3.677,-3.6769,-3.6769,-3.6768,0,-3.6393,-3.6409,-3.6458,-3.6505,-3.6547,-3.6518,-3.6553,-3.6589,-3.6646,-3.6674,-3.6715,-3.678,-3.6831,-3.6843,-3.6891,-3.6928,-3.6917,-3.6941,-3.6939,-3.6942,-3.6803,-3.6783,-3.695,-3.695,-3.695,-3.695,-3.6949,-3.6949,-3.6489,-3.6571,-3.657,-3.6663,-3.6678,-3.674,-3.6763,-3.6791,-3.6813,-3.6887,-3.693,-3.6937,-3.6958,-3.7007,-3.7053,-3.7054,-3.7074,-3.7103,-3.71,-3.697,-3.6952,-3.6935,-3.6916,-3.7107,-3.7108,-3.7235,-3.7236,-3.7237]},{"header":{"parameterUnit":"m.s-1","parameterCategory":1,"la1":30.2991,"la2":30.254,"lo1":-89.0895,"lo2":-89.0444,"dy":0.0017,"dx":0.0017,"nx":28,"ny":28,"refTime":"2023-10-11T03:00:00:Z","depth":0,"parameterNumber":3,"parameterNumberName":"V-component_of_WINDS"},"data":[0,0,0,0,0,0,0,0,0,0,0,0,0,0,0,0,0,0,0,0,0,0,0,0,0,0,0,0,0,0,0,0,0,0,0,0,0,0,0,0,0,0,0,0,0,0,0,0,0,0,0,0,0,0,0,0,0,0,-3.6436,-3.6436,0,-3.6476,-3.6477,-3.6477,-3.6445,-3.6444,-3.6442,-3.6441,-3.648,-3.6482,-3.6484,0,0,0,0,0,0,0,0,0,0,0,0,0,-3.6326,-3.6328,-3.6436,-3.6436,-3.6437,-3.6476,-3.6477,-3.6477,-3.6445,-3.6444,-3.6442,-3.644,-3.6479,-3.6482,-3.6484,0,0,0,0,0,0,0,0,0,0,0,0,0,-3.6371,-3.6329,-3.6435,-3.6425,-3.6425,-3.6476,-3.6477,-3.6478,-3.6446,-3.6444,-3.6442,-3.644,-3.6478,-3.6481,-3.6485,-3.6547,0,0,-3.6495,-3.6497,0,0,0,0,0,0,0,0,-3.6368,-3.6375,-3.6426,-3.6426,-3.6426,-3.6454,-3.6452,-3.6501,-3.6446,-3.6438,-3.6441,-3.6439,-3.6472,-3.6476,-3.6488,-3.6549,-3.6551,-3.6496,-3.6498,-3.6499,-3.65,0,0,0,0,0,0,0,-3.6365,-3.6373,-3.6452,-3.6427,-3.6427,-3.6418,-3.6422,-3.6461,-3.6466,-3.6438,-3.6436,-3.6441,-3.6472,-3.6485,-3.6489,-3.6551,-3.6496,-3.6499,-3.6501,-3.6502,-3.6664,-3.6666,0,0,0,0,0,0,-3.6364,-3.6371,-3.645,-3.6453,-3.6392,-3.6421,-3.6426,-3.6447,-3.6465,-3.6466,-3.6443,-3.644,-3.648,-3.6485,-3.649,-3.6564,-3.6499,-3.6503,-3.6505,-3.6662,-3.6664,-3.6667,0,0,0,0,0,0,-3.6361,-3.6371,-3.6449,-3.6411,-3.642,-3.6425,-3.6449,-3.6449,-3.6462,-3.6469,-3.647,-3.6456,-3.6479,-3.6485,-3.6533,-3.6565,-3.6504,-3.6507,-3.6659,-3.6663,-3.6666,-3.6712,0,0,0,0,0,0,-3.6358,-3.6371,-3.6395,-3.6412,-3.6422,-3.6492,-3.6451,-3.6451,-3.6468,-3.6464,-3.6481,-3.6482,-3.6478,-3.6528,-3.6537,-3.6568,-3.651,-3.6656,-3.6661,-3.6665,-3.6708,-3.6717,-3.6724,0,0,0,0,0,-3.6355,-3.6406,-3.6397,-3.6406,-3.6454,-3.6494,-3.65,-3.6495,-3.6471,-3.6495,-3.65,-3.6482,-3.656,-3.6533,-3.6543,-3.6576,-3.6654,-3.6659,-3.6664,-3.6704,-3.6715,-3.6724,0,0,0,0,0,0,-3.6392,-3.6408,-3.6398,-3.6457,-3.6474,-3.6489,-3.6519,-3.6506,-3.653,-3.6525,-3.6517,-3.6521,-3.6571,-3.6578,-3.6548,-3.6637,-3.6603,-3.661,-3.663,-3.6641,-3.6649,-3.6646,-3.6513,0,0,0,0,0,-3.6407,-3.644,-3.6452,-3.6503,-3.6512,-3.6514,-3.6532,-3.6526,-3.6543,-3.6551,-3.6559,-3.6576,-3.6604,-3.6622,-3.6649,-3.6709,-3.6711,-3.6736,-3.6744,-3.6751,-3.6757,-3.6788,-3.6798,-3.6683,-3.6683,-3.6683,0,0,-3.6439,-3.6452,-3.6473,-3.651,-3.6523,-3.6556,-3.6521,-3.6557,-3.6581,-3.6556,-3.6602,-3.6608,-3.6626,-3.668,-3.6704,-3.6687,-3.6789,-3.6757,-3.6762,-3.6765,-3.6794,-3.6805,-3.6815,-3.6687,-3.6686,-3.6685,0,0,-3.6513,-3.6527,-3.657,-3.6584,-3.6604,-3.6605,-3.6616,-3.6632,-3.6636,-3.6682,-3.6663,-3.6691,-3.674,-3.6753,-3.6767,-3.6845,-3.6829,-3.6854,-3.6897,-3.6927,-3.6936,-3.6944,-3.6971,-3.6981,-3.686,-3.686,-3.686,0,-3.6549,-3.6599,-3.6594,-3.6631,-3.6648,-3.6627,-3.667,-3.6684,-3.6711,-3.6723,-3.6704,-3.6765,-3.6776,-3.6832,-3.6851,-3.6863,-3.6873,-3.6852,-3.6935,-3.6943,-3.6951,-3.6976,-3.6987,-3.6863,-3.6863,-3.6862,-3.6862,0,-3.6642,-3.6677,-3.671,-3.6738,-3.6758,-3.6798,-3.6797,-3.6818,-3.681,-3.6813,-3.6859,-3.6871,-3.69,-3.6912,-3.6905,-3.6967,-3.6956,-3.6937,-3.6903,-3.6965,-3.6989,-3.6999,-3.6867,-3.6866,-3.6865,-3.6864,0,0,-3.6742,-3.6766,-3.6778,-3.679,-3.6811,-3.6837,-3.6876,-3.6904,-3.6922,-3.6941,-3.6973,-3.7015,-3.6996,-3.7011,-3.7005,-3.7032,-3.7092,-3.7009,-3.7009,-3.7023,-3.716,-3.7175,-3.7186,-3.7082,-3.7084,-3.7085,-3.7159,0,-3.6816,-3.6885,-3.6881,-3.6944,-3.6976,-3.6956,-3.699,-3.7005,-3.7009,-3.7035,-3.7037,-3.7067,-3.7041,-3.705,-3.7076,-3.708,-3.7119,-3.7074,-3.711,-3.7111,-3.7106,-3.7199,-3.7215,-3.7284,-3.7168,-3.717,-3.7171,0,-3.6913,-3.6937,-3.7004,-3.702,-3.7032,-3.7063,-3.7088,-3.7114,-3.713,-3.7131,-3.7147,-3.7137,-3.7174,-3.714,-3.719,-3.716,-3.7174,-3.7178,-3.718,-3.7183,-3.7144,-3.7204,-3.7305,-3.7316,-3.7186,-3.7185,-3.7184,0,-3.6978,-3.7026,-3.7073,-3.7084,-3.7103,-3.7125,-3.7134,-3.7149,-3.7166,-3.7187,-3.7198,-3.7223,-3.7237,-3.7257,-3.7252,-3.7228,-3.7304,-3.7269,-3.7304,-3.7304,-3.7321,-3.732,-3.7426,-3.7331,-3.7331,-3.7331,-3.733,0,-3.7061,-3.7103,-3.7102,-3.7131,-3.7176,-3.717,-3.7215,-3.7221,-3.7235,-3.7263,-3.7247,-3.7274,-3.7267,-3.7293,-3.729,-3.7332,-3.7338,-3.7338,-3.7337,-3.734,-3.734,-3.7349,-3.7343,-3.7333,-3.7333,-3.7332,-3.7332,0,-3.7141,-3.7142,-3.7192,-3.7206,-3.7211,-3.7244,-3.7255,-3.7281,-3.7283,-3.7319,-3.7327,-3.733,-3.7359,-3.7357,-3.739,-3.7388,-3.744,-3.7433,-3.7435,-3.7433,-3.7468,-3.7464,-3.7583,-3.7597,-3.7494,-3.7495,-3.7496,0,-3.7194,-3.7226,-3.7244,-3.7262,-3.7273,-3.7303,-3.732,-3.7315,-3.7333,-3.7355,-3.7378,-3.7407,-3.7429,-3.7477,-3.7481,-3.7506,-3.7499,-3.7539,-3.7503,-3.7504,-3.7499,-3.7497,-3.75,-3.7546,-3.7547,-3.7548,-3.7549,0,-3.7288,-3.7287,-3.7314,-3.734,-3.7362,-3.7382,-3.7401,-3.7416,-3.7413,-3.7434,-3.7465,-3.7482,-3.7517,-3.7545,-3.7568,-3.7576,-3.7562,-3.756,-3.757,-3.7572,-3.7572,-3.7572,-3.7453,-3.7558,-3.7557,-3.7556,-3.7556,-3.7555,-3.7356,-3.7383,-3.74,-3.7429,-3.7443,-3.7461,-3.7486,-3.7491,-3.7517,-3.7545,-3.754,-3.7574,-3.7589,-3.7619,-3.7629,-3.7655,-3.764,-3.7654,-3.7657,-3.7661,-3.7664,-3.7568,-3.7659,-3.7659,-3.7659,-3.7659,-3.7658,0,-3.7448,-3.7458,-3.7486,-3.7513,-3.7536,-3.7521,-3.7541,-3.756,-3.7591,-3.7607,-3.7629,-3.7664,-3.7691,-3.7697,-3.7723,-3.7742,-3.7736,-3.7749,-3.7747,-3.7749,-3.7676,-3.7666,-3.7753,-3.7753,-3.7753,-3.7753,-3.7753,-3.7753,-3.7499,-3.7544,-3.7545,-3.7596,-3.7605,-3.7639,-3.7651,-3.7667,-3.7679,-3.7719,-3.7742,-3.7746,-3.7757,-3.7783,-3.7807,-3.7808,-3.7817,-3.7833,-3.7831,-3.7763,-3.7754,-3.7745,-3.7734,-3.7835,-3.7835,-3.7901,-3.7902,-3.7902]}]]